This demonstration page uses our WeatherBlox Daily Observations layout. Learn more.

Left ArrowRight Arrow

39.12711, -84.51439

Hourly Observations for June 24, 2017

Temp ( °F °C ) Dew Point ( °F °C ) Humidity (%) Winds ( mph kmh ) Pressure ( in mb ) Visibility ( mi km ) Precip ( " mm )
1:53 am 01:53 Clear 64 17.8 64 17.8 100 100 SSW 3 6 29.85 1011 10 16 0.00 0.00
2:07 am 02:07 Mostly Clear with Mist and Fog 64 17.8 64 17.8 100 100 S 3 6 29.88 1012 2 2 0.00 0.00
2:10 am 02:10 Mostly Cloudy with Mist and Fog 63 17.2 63 17.2 100 100 S 3 6 29.88 1012 1 1 0.00 0.00
2:23 am 02:23 Mostly Clear with Mist and Fog 64 17.8 64 17.8 100 100 S 5 7 29.88 1012 1 2 0.00 0.00
2:28 am 02:28 Mostly Clear with Mist and Fog 63 17.2 63 17.2 100 100 S 5 7 29.88 1012 3 5 0.00 0.00
2:53 am 02:53 Clear with Mist and Fog 63 17.2 63 17.2 100 100 SSE 3 6 29.87 1011 2 2 0.00 0.00
2:56 am 02:56 Mostly Cloudy with Mist and Fog 62 16.7 62 16.7 100 100 Calm 29.88 1012 1 1 0.00 0.00
3:21 am 03:21 Mostly Cloudy with Fog 63 17.2 63 17.2 100 100 Calm 29.88 1012 0 0 0.00 0.00
3:53 am 03:53 Mostly Cloudy with Fog 61 16.1 61 16.1 100 100 Calm 29.87 1012 0 0 0.00 0.00
4:53 am 04:53 Mostly Cloudy with Fog 61 16.1 61 16.1 100 100 Calm 29.88 1012 0 0 0.00 0.00
5:53 am 05:53 Mostly Cloudy with Fog 61 16.1 61 16.1 100 100 Calm 29.90 1012 0 0 0.00 0.00
6:53 am 06:53 Sunny with Patchy Fog 60 15.6 60 15.6 100 100 Calm 29.92 1013 7 11 0.00 0.00
7:53 am 07:53 Sunny 67 19.4 63 17.2 87 87 W 5 7 29.94 1014 10 16 0.00 0.00
8:53 am 08:53 Sunny 69 20.6 62 16.7 78 78 VRB 6 9 29.96 1015 10 16 0.00 0.00
9:53 am 09:53 Mostly Sunny 71 21.7 63 17.2 76 76 W 6 9 29.97 1015 10 16 0.00 0.00
10:53 am 10:53 Mostly Sunny 73 22.8 62 16.7 69 69 W 3 6 29.98 1015 10 16 0.00 0.00
11:53 am 11:53 Partly Cloudy 74 23.3 61 16.1 64 64 WSW 7 11 29.98 1015 10 16 0.00 0.00
12:53 pm 12:53 Partly Cloudy 76 24.4 61 16.1 60 60 W 12 19 29.99 1016 10 16 0.00 0.00
1:53 pm 13:53 Partly Cloudy 78 25.6 61 16.1 56 56 WSW 14 22 29.99 1016 10 16 0.00 0.00
2:53 pm 14:53 Mostly Cloudy 77 25 59 15 54 54 WNW 14 22 29.99 1016 10 16 0.00 0.00
3:53 pm 15:53 Mostly Cloudy 79 26.1 58 14.4 49 49 NW 8 13 29.99 1016 10 16 0.00 0.00
4:53 pm 16:53 Mostly Cloudy 79 26.1 59 15 50 50 WNW 9 15 29.99 1016 10 16 0.00 0.00
5:53 pm 17:53 Partly Cloudy 77 25 58 14.4 52 52 W 13 20 29.99 1016 10 16 0.00 0.00
6:53 pm 18:53 Partly Cloudy 77 25 58 14.4 52 52 W 14 22 29.99 1016 10 16 0.00 0.00
7:53 pm 19:53 Partly Cloudy 75 23.9 56 13.3 52 52 W 9 15 30.01 1016 10 16 0.00 0.00
8:53 pm 20:53 Mostly Sunny 73 22.8 56 13.3 55 55 W 8 13 30.03 1017 10 16 0.00 0.00
9:53 pm 21:53 Mostly Clear 73 22.8 55 12.8 53 53 NW 8 13 30.05 1018 10 16 0.00 0.00
10:53 pm 22:53 Clear 72 22.2 53 11.7 52 52 WNW 7 11 30.09 1019 10 16 0.00 0.00
11:53 pm 23:53 Clear 69 20.6 53 11.7 57 57 NW 6 9 30.10 1019 10 16 0.00 0.00

Powered by AerisWeather